| time (UTC) | temp F | wind direction | speed MPH | gust MPH | rain 1hr in | rain 24hr in | rain mn in | humidity % | barometer mb |
| 20260504034940 | 55 | 205 | 0.0 | 1.0 | 0.00 | 0.00 | 0.00 | 85 | 1018.7 |
| 20260504034440 | 55 | 205 | 1.0 | 4.0 | 0.00 | 0.00 | 0.00 | 85 | 1018.8 |
| 20260504033943 | 55 | 323 | 0.0 | 0.0 | 0.00 | 0.00 | 0.00 | 85 | 1018.9 |
| 20260504033939 | 55 | 205 | 0.0 | 4.0 | 0.00 | 0.00 | 0.00 | 86 | 1019.0 |
| 20260504032938 | 55 | 322 | 0.0 | 0.0 | 0.00 | 0.00 | 0.00 | 85 | 1018.9 |
| 20260504032438 | 55 | 322 | 0.0 | 0.0 | 0.00 | 0.00 | 0.00 | 85 | 1018.8 |
| 20260504031938 | 55 | 322 | 0.0 | 0.0 | 0.00 | 0.00 | 0.00 | 84 | 1018.8 |
| 20260504031438 | 56 | 323 | 0.0 | 0.0 | 0.00 | 0.00 | 0.00 | 84 | 1018.7 |
| 20260504030940 | 56 | 323 | 0.0 | 0.0 | 0.00 | 0.00 | 0.00 | 83 | 1018.7 |
| 20260504030936 | 56 | 323 | 0.0 | 0.0 | 0.00 | 0.00 | 0.00 | 83 | 1018.6 |
| 20260504030436 | 56 | 323 | 0.0 | 0.0 | 0.00 | 0.00 | 0.00 | 83 | 1018.8 |
| 20260504025436 | 56 | 322 | 0.0 | 0.0 | 0.00 | 0.00 | 0.00 | 82 | 1018.7 |
| 20260504024935 | 56 | 323 | 0.0 | 0.0 | 0.00 | 0.00 | 0.00 | 81 | 1018.7 |
| 20260504024434 | 56 | 322 | 0.0 | 0.0 | 0.00 | 0.00 | 0.00 | 81 | 1018.7 |
| 20260504023934 | 57 | 322 | 0.0 | 0.0 | 0.00 | 0.00 | 0.00 | 81 | 1018.7 |
| 20260504023432 | 57 | 323 | 0.0 | 0.0 | 0.00 | 0.00 | 0.00 | 80 | 1018.7 |
| 20260504022931 | 57 | 322 | 0.0 | 1.0 | 0.00 | 0.00 | 0.00 | 79 | 1018.7 |
| 20260504022432 | 57 | 322 | 0.0 | 1.0 | 0.00 | 0.00 | 0.00 | 80 | 1018.7 |
| 20260504021932 | 57 | 322 | 0.0 | 1.0 | 0.00 | 0.00 | 0.00 | 79 | 1018.6 |
| 20260504021434 | 58 | 323 | 0.0 | 0.0 | 0.00 | 0.00 | 0.00 | 78 | 1018.5 |
| 20260504021429 | 57 | 323 | 0.0 | 0.0 | 0.00 | 0.00 | 0.00 | 78 | 1018.6 |
| 20260504020428 | 58 | 323 | 0.0 | 0.0 | 0.00 | 0.00 | 0.00 | 78 | 1018.5 |
| 20260504015925 | 58 | 322 | 0.0 | 0.0 | 0.00 | 0.00 | 0.00 | 77 | 1018.4 |
| 20260504015426 | 58 | 323 | 0.0 | 0.0 | 0.00 | 0.00 | 0.00 | 76 | 1018.3 |
| 20260504014926 | 59 | 322 | 0.0 | 0.0 | 0.00 | 0.00 | 0.00 | 74 | 1018.3 |
| 20260504014423 | 59 | 323 | 0.0 | 0.0 | 0.00 | 0.00 | 0.00 | 73 | 1018.3 |
| 20260504013924 | 59 | 322 | 0.0 | 0.0 | 0.00 | 0.00 | 0.00 | 74 | 1018.3 |
| 20260504013424 | 60 | 323 | 0.0 | 0.0 | 0.00 | 0.00 | 0.00 | 72 | 1018.1 |
| 20260504012923 | 60 | 322 | 0.0 | 0.0 | 0.00 | 0.00 | 0.00 | 72 | 1018.2 |
| 20260504012422 | 60 | 322 | 0.0 | 0.0 | 0.00 | 0.00 | 0.00 | 71 | 1018.1 |
| 20260504011922 | 60 | 323 | 0.0 | 0.0 | 0.00 | 0.00 | 0.00 | 72 | 1018.1 |
| 20260504011419 | 61 | 323 | 0.0 | 0.0 | 0.00 | 0.00 | 0.00 | 69 | 1018.1 |
| 20260504010920 | 61 | 322 | 0.0 | 0.0 | 0.00 | 0.00 | 0.00 | 69 | 1018.1 |
| 20260504010420 | 62 | 322 | 0.0 | 0.0 | 0.00 | 0.00 | 0.00 | 69 | 1018.0 |
| 20260504005919 | 62 | 323 | 0.0 | 0.0 | 0.00 | 0.00 | 0.00 | 66 | 1017.8 |
| 20260504005419 | 63 | 323 | 0.0 | 0.0 | 0.00 | 0.00 | 0.00 | 68 | 1017.8 |
| 20260504004926 | 65 | 321 | 0.0 | 0.0 | 0.00 | 0.00 | 0.00 | 65 | 1017.7 |
| 20260504004922 | 64 | 323 | 0.0 | 0.0 | 0.00 | 0.00 | 0.00 | 67 | 1017.8 |
| 20260504004520 | 64 | 323 | 0.0 | 0.0 | 0.00 | 0.00 | 0.00 | 67 | 1017.7 |
| 20260504003413 | 66 | 321 | 0.0 | 4.0 | 0.00 | 0.00 | 0.00 | 63 | 1017.6 |
| 20260504002902 | 66 | 321 | 0.0 | 4.0 | 0.00 | 0.00 | 0.00 | 60 | 1017.6 |
| 20260504002356 | 67 | 321 | 0.0 | 4.0 | 0.00 | 0.00 | 0.00 | 57 | 1017.7 |
| 20260504001855 | 68 | 317 | 0.0 | 5.0 | 0.00 | 0.00 | 0.00 | 57 | 1017.6 |
| 20260504001356 | 68 | 317 | 0.0 | 5.0 | 0.00 | 0.00 | 0.00 | 56 | 1017.6 |
| 20260504000856 | 69 | 317 | 0.0 | 1.0 | 0.00 | 0.00 | 0.00 | 54 | 1017.6 |
| 20260504000355 | 70 | 316 | 0.0 | 3.0 | 0.00 | 0.00 | 0.00 | 53 | 1017.5 |
| 20260503235856 | 70 | 316 | 0.0 | 3.0 | 0.00 | 0.00 | 0.00 | 51 | 1017.5 |
| 20260503235356 | 71 | 316 | 0.0 | 0.0 | 0.00 | 0.00 | 0.00 | 52 | 1017.5 |
| 20260503234855 | 72 | 316 | 0.0 | 0.0 | 0.00 | 0.00 | 0.00 | 44 | 1017.5 |
| 20260503234356 | 73 | 316 | 0.0 | 2.0 | 0.00 | 0.00 | 0.00 | 42 | 1017.6 |
| 20260503233856 | 73 | 316 | 0.0 | 2.0 | 0.00 | 0.00 | 0.00 | 41 | 1017.6 |
| 20260503233355 | 74 | 319 | 1.0 | 2.0 | 0.00 | 0.00 | 0.00 | 40 | 1017.5 |
| 20260503232855 | 74 | 315 | 1.0 | 3.0 | 0.00 | 0.00 | 0.00 | 38 | 1017.7 |
| 20260503232400 | 75 | 288 | 2.0 | 5.0 | 0.00 | 0.00 | 0.00 | 36 | 1017.7 |
| 20260503232356 | 75 | 321 | 2.0 | 5.0 | 0.00 | 0.00 | 0.00 | 38 | 1017.7 |
| 20260503231356 | 76 | 16 | 2.0 | 4.0 | 0.00 | 0.00 | 0.00 | 36 | 1017.7 |
| 20260503230856 | 76 | 301 | 3.0 | 7.0 | 0.00 | 0.00 | 0.00 | 35 | 1017.6 |
| 20260503230359 | 76 | 312 | 3.0 | 7.0 | 0.00 | 0.00 | 0.00 | 35 | 1017.7 |
| 20260503225855 | 76 | 10 | 3.0 | 7.0 | 0.00 | 0.00 | 0.00 | 36 | 1017.7 |
| 20260503225400 | 76 | 359 | 2.0 | 5.0 | 0.00 | 0.00 | 0.00 | 36 | 1017.8 |
| 20260503225355 | 76 | 25 | 3.0 | 7.0 | 0.00 | 0.00 | 0.00 | 34 | 1017.8 |
| 20260503224356 | 76 | 323 | 3.0 | 6.0 | 0.00 | 0.00 | 0.00 | 34 | 1017.7 |
| 20260503223854 | 77 | 311 | 4.0 | 10.0 | 0.00 | 0.00 | 0.00 | 35 | 1017.7 |
| 20260503223353 | 76 | 4 | 3.0 | 10.0 | 0.00 | 0.00 | 0.00 | 35 | 1017.7 |
| 20260503222854 | 77 | 337 | 2.0 | 8.0 | 0.00 | 0.00 | 0.00 | 34 | 1017.7 |
| 20260503222354 | 77 | 354 | 2.0 | 8.0 | 0.00 | 0.00 | 0.00 | 34 | 1017.8 |
| 20260503221853 | 77 | 355 | 2.0 | 7.0 | 0.00 | 0.00 | 0.00 | 34 | 1017.8 |
| 20260503221351 | 76 | 316 | 3.0 | 7.0 | 0.00 | 0.00 | 0.00 | 36 | 1017.8 |
| 20260503220850 | 76 | 39 | 3.0 | 7.0 | 0.00 | 0.00 | 0.00 | 34 | 1017.8 |
| 20260503220349 | 76 | 297 | 2.0 | 7.0 | 0.00 | 0.00 | 0.00 | 34 | 1017.9 |
| 20260503215846 | 77 | 342 | 3.0 | 8.0 | 0.00 | 0.00 | 0.00 | 34 | 1017.8 |
| 20260503215346 | 77 | 38 | 4.0 | 8.0 | 0.00 | 0.00 | 0.00 | 34 | 1018.0 |
| 20260503214845 | 77 | 320 | 2.0 | 8.0 | 0.00 | 0.00 | 0.00 | 33 | 1018.0 |
| 20260503214345 | 78 | 329 | 1.0 | 4.0 | 0.00 | 0.00 | 0.00 | 33 | 1018.0 |
| 20260503213846 | 77 | 211 | 2.0 | 5.0 | 0.00 | 0.00 | 0.00 | 32 | 1018.0 |
| 20260503213344 | 76 | 44 | 4.0 | 10.0 | 0.00 | 0.00 | 0.00 | 35 | 1017.9 |
| 20260503212843 | 76 | 44 | 5.0 | 11.0 | 0.00 | 0.00 | 0.00 | 32 | 1018.1 |
| 20260503212344 | 76 | 358 | 5.0 | 11.0 | 0.00 | 0.00 | 0.00 | 33 | 1018.1 |
| 20260503211843 | 77 | 313 | 3.0 | 10.0 | 0.00 | 0.00 | 0.00 | 34 | 1018.2 |
| 20260503211343 | 77 | 63 | 2.0 | 6.0 | 0.00 | 0.00 | 0.00 | 35 | 1018.2 |
| 20260503210844 | 76 | 319 | 3.0 | 10.0 | 0.00 | 0.00 | 0.00 | 35 | 1018.2 |
| 20260503210341 | 76 | 352 | 5.0 | 10.0 | 0.00 | 0.00 | 0.00 | 32 | 1018.3 |
| 20260503205841 | 76 | 46 | 4.0 | 9.0 | 0.00 | 0.00 | 0.00 | 32 | 1018.3 |
| 20260503205346 | 76 | 17 | 2.0 | 7.0 | 0.00 | 0.00 | 0.00 | 34 | 1018.4 |
| 20260503204839 | 76 | 342 | 3.0 | 7.0 | 0.00 | 0.00 | 0.00 | 34 | 1018.4 |
| 20260503204337 | 76 | 281 | 5.0 | 10.0 | 0.00 | 0.00 | 0.00 | 33 | 1018.6 |
| 20260503203837 | 76 | 16 | 5.0 | 12.0 | 0.00 | 0.00 | 0.00 | 33 | 1018.6 |
| 20260503203337 | 76 | 345 | 4.0 | 12.0 | 0.00 | 0.00 | 0.00 | 35 | 1018.7 |
| 20260503202837 | 76 | 6 | 3.0 | 11.0 | 0.00 | 0.00 | 0.00 | 35 | 1018.8 |
| 20260503202337 | 76 | 94 | 4.0 | 11.0 | 0.00 | 0.00 | 0.00 | 38 | 1018.7 |
| 20260503201837 | 75 | 355 | 6.0 | 13.0 | 0.00 | 0.00 | 0.00 | 36 | 1018.9 |
| 20260503201337 | 76 | 4 | 6.0 | 13.0 | 0.00 | 0.00 | 0.00 | 34 | 1019.0 |
| 20260503200841 | 76 | 278 | 3.0 | 9.0 | 0.00 | 0.00 | 0.00 | 33 | 1019.2 |
| 20260503200837 | 76 | 33 | 4.0 | 12.0 | 0.00 | 0.00 | 0.00 | 34 | 1019.1 |
| 20260503200441 | 76 | 297 | 5.0 | 12.0 | 0.00 | 0.00 | 0.00 | 34 | 1019.3 |
| 20260503195339 | 76 | 49 | 5.0 | 12.0 | 0.00 | 0.00 | 0.00 | 32 | 1019.4 |
| 20260503194841 | 75 | 357 | 5.0 | 12.0 | 0.00 | 0.00 | 0.00 | 33 | 1019.5 |
| 20260503194837 | 75 | 15 | 5.0 | 12.0 | 0.00 | 0.00 | 0.00 | 34 | 1019.5 |
| 20260503193836 | 75 | 27 | 5.0 | 12.0 | 0.00 | 0.00 | 0.00 | 33 | 1019.7 |
| 20260503193335 | 75 | 25 | 5.0 | 12.0 | 0.00 | 0.00 | 0.00 | 33 | 1019.6 |
| 20260503192835 | 75 | 339 | 4.0 | 12.0 | 0.00 | 0.00 | 0.00 | 34 | 1019.7 |
| 20260503192335 | 75 | 125 | 5.0 | 11.0 | 0.00 | 0.00 | 0.00 | 33 | 1019.7 |
| 20260503191835 | 75 | 297 | 7.0 | 17.0 | 0.00 | 0.00 | 0.00 | 33 | 1019.8 |
| 20260503191339 | 75 | 13 | 6.0 | 14.0 | 0.00 | 0.00 | 0.00 | 34 | 1019.9 |
| 20260503191335 | 75 | 313 | 7.0 | 17.0 | 0.00 | 0.00 | 0.00 | 34 | 1019.9 |
| 20260503190335 | 75 | 8 | 5.0 | 14.0 | 0.00 | 0.00 | 0.00 | 34 | 1020.1 |
| 20260503185839 | 75 | 143 | 3.0 | 7.0 | 0.00 | 0.00 | 0.00 | 35 | 1020.2 |
| 20260503185835 | 75 | 272 | 3.0 | 8.0 | 0.00 | 0.00 | 0.00 | 36 | 1020.1 |
| 20260503184835 | 75 | 289 | 3.0 | 6.0 | 0.00 | 0.00 | 0.00 | 34 | 1020.3 |
| 20260503184333 | 75 | 65 | 5.0 | 14.0 | 0.00 | 0.00 | 0.00 | 34 | 1020.3 |
| 20260503183833 | 74 | 28 | 6.0 | 14.0 | 0.00 | 0.00 | 0.00 | 34 | 1020.4 |
| 20260503183333 | 74 | 39 | 6.0 | 17.0 | 0.00 | 0.00 | 0.00 | 35 | 1020.5 |
| 20260503182832 | 75 | 341 | 5.0 | 17.0 | 0.00 | 0.00 | 0.00 | 33 | 1020.5 |
| 20260503182333 | 75 | 6 | 2.0 | 11.0 | 0.00 | 0.00 | 0.00 | 37 | 1020.6 |
| 20260503181833 | 74 | 234 | 3.0 | 8.0 | 0.00 | 0.00 | 0.00 | 37 | 1020.7 |
| 20260503181333 | 74 | 153 | 5.0 | 12.0 | 0.00 | 0.00 | 0.00 | 34 | 1020.9 |
| 20260503180837 | 74 | 35 | 3.0 | 8.0 | 0.00 | 0.00 | 0.00 | 35 | 1021.1 |
| 20260503180833 | 74 | 46 | 5.0 | 12.0 | 0.00 | 0.00 | 0.00 | 33 | 1020.9 |
| 20260503175833 | 74 | 163 | 5.0 | 11.0 | 0.00 | 0.00 | 0.00 | 34 | 1021.0 |
| 20260503175333 | 74 | 37 | 6.0 | 12.0 | 0.00 | 0.00 | 0.00 | 32 | 1021.2 |
| 20260503174833 | 74 | 27 | 5.0 | 12.0 | 0.00 | 0.00 | 0.00 | 33 | 1021.2 |
| 20260503174332 | 74 | 310 | 4.0 | 10.0 | 0.00 | 0.00 | 0.00 | 36 | 1021.0 |
| 20260503173833 | 73 | 310 | 5.0 | 10.0 | 0.00 | 0.00 | 0.00 | 34 | 1021.2 |
| 20260503173333 | 74 | 48 | 4.0 | 11.0 | 0.00 | 0.00 | 0.00 | 35 | 1021.3 |
| 20260503172832 | 74 | 259 | 4.0 | 11.0 | 0.00 | 0.00 | 0.00 | 36 | 1021.2 |
| 20260503172333 | 73 | 212 | 4.0 | 11.0 | 0.00 | 0.00 | 0.00 | 35 | 1021.3 |
| 20260503171833 | 73 | 327 | 3.0 | 11.0 | 0.00 | 0.00 | 0.00 | 35 | 1021.4 |
| 20260503171337 | 73 | 57 | 5.0 | 10.0 | 0.00 | 0.00 | 0.00 | 34 | 1021.5 |
| 20260503171332 | 73 | 39 | 4.0 | 10.0 | 0.00 | 0.00 | 0.00 | 34 | 1021.4 |
| 20260503170333 | 73 | 350 | 4.0 | 10.0 | 0.00 | 0.00 | 0.00 | 33 | 1021.7 |
| 20260503150820 | 70 | 134 | 1.0 | 3.0 | 0.00 | 0.00 | 0.00 | 52 | 1022.5 |
| 20260503150321 | 69 | 236 | 1.0 | 3.0 | 0.00 | 0.00 | 0.00 | 56 | 1022.5 |
| 20260503140312 | 62 | 3 | 1.0 | 4.0 | 0.00 | 0.00 | 0.00 | 66 | 1022.1 |
| 20260503131309 | 56 | 314 | 2.0 | 5.0 | 0.00 | 0.01 | 0.00 | 72 | 1021.7 |
| 20260503130808 | 56 | 319 | 1.0 | 4.0 | 0.00 | 0.01 | 0.00 | 72 | 1021.6 |
| 20260503130313 | 55 | 8 | 1.0 | 3.0 | 0.00 | 0.01 | 0.00 | 77 | 1021.4 |
| 20260503130308 | 56 | 358 | 0.0 | 3.0 | 0.00 | 0.01 | 0.00 | 74 | 1021.6 |
| 20260503110759 | 44 | 286 | 0.0 | 0.0 | 0.00 | 0.02 | 0.00 | 91 | 1020.9 |
| 20260503110258 | 44 | 205 | 0.0 | 0.0 | 0.00 | 0.03 | 0.00 | 91 | 1020.9 |
| 20260503100254 | 45 | 172 | 0.0 | 0.0 | 0.00 | 0.05 | 0.00 | 90 | 1020.2 |
| 20260503090252 | 45 | 337 | 0.0 | 2.0 | 0.00 | 0.11 | 0.00 | 90 | 1019.8 |
| 20260503081249 | 46 | 185 | 0.0 | 0.0 | 0.00 | 0.13 | 0.00 | 90 | 1019.6 |
| 20260503080750 | 46 | 186 | 0.0 | 1.0 | 0.00 | 0.14 | 0.00 | 89 | 1019.6 |
| 20260503080249 | 46 | 186 | 0.0 | 3.0 | 0.00 | 0.15 | 0.00 | 89 | 1019.5 |
| 20260503072743 | 46 | 327 | 0.0 | 0.0 | 0.00 | 0.20 | 0.00 | 89 | 1018.9 |
| 20260503072244 | 46 | 327 | 0.0 | 0.0 | 0.00 | 0.21 | 0.00 | 89 | 1019.0 |
| 20260503071744 | 46 | 327 | 0.0 | 0.0 | 0.00 | 0.24 | 0.00 | 89 | 1018.9 |
| 20260503071243 | 46 | 324 | 0.0 | 0.0 | 0.00 | 0.26 | 0.00 | 89 | 1019.0 |
| 20260503070742 | 46 | 324 | 0.0 | 0.0 | 0.00 | 0.27 | 0.00 | 89 | 1019.1 |
| 20260503070242 | 46 | 324 | 0.0 | 0.0 | 0.00 | 0.28 | 0.00 | 89 | 1019.1 |
| 20260503060239 | 48 | 324 | 0.0 | 0.0 | 0.00 | 0.38 | 0.00 | 87 | 1018.9 |
| 20260503054739 | 49 | 324 | 0.0 | 0.0 | 0.00 | 0.41 | 0.00 | 86 | 1018.8 |
| 20260503054240 | 49 | 324 | 0.0 | 0.0 | 0.00 | 0.42 | 0.00 | 86 | 1018.9 |
| 20260503053735 | 49 | 324 | 0.0 | 0.0 | 0.00 | 0.42 | 0.00 | 86 | 1018.8 |
| 20260503053235 | 49 | 324 | 0.0 | 0.0 | 0.00 | 0.42 | 0.00 | 85 | 1018.7 |
| 20260503052734 | 50 | 324 | 0.0 | 0.0 | 0.00 | 0.43 | 0.00 | 85 | 1018.8 |
| 20260503052237 | 50 | 324 | 0.0 | 0.0 | 0.00 | 0.43 | 0.00 | 84 | 1018.7 |
| 20260503052233 | 50 | 324 | 0.0 | 0.0 | 0.00 | 0.43 | 0.00 | 84 | 1018.7 |
| 20260503051231 | 50 | 324 | 0.0 | 0.0 | 0.00 | 0.43 | 0.00 | 85 | 1018.7 |
| 20260503050731 | 50 | 325 | 0.0 | 0.0 | 0.00 | 0.43 | 0.00 | 85 | 1018.7 |
| 20260503050232 | 50 | 324 | 0.0 | 0.0 | 0.00 | 0.43 | 0.00 | 85 | 1018.7 |
| 20260503045732 | 50 | 324 | 0.0 | 0.0 | 0.00 | 0.43 | 0.43 | 84 | 1018.7 |
| 20260503045232 | 50 | 324 | 0.0 | 0.0 | 0.00 | 0.43 | 0.43 | 84 | 1018.7 |
| 20260503044730 | 50 | 324 | 0.0 | 0.0 | 0.00 | 0.43 | 0.43 | 84 | 1018.7 |
| 20260503044230 | 51 | 324 | 0.0 | 0.0 | 0.00 | 0.44 | 0.43 | 84 | 1018.7 |
| 20260503043730 | 51 | 324 | 0.0 | 0.0 | 0.00 | 0.44 | 0.43 | 84 | 1018.7 |
| 20260503043230 | 51 | 324 | 0.0 | 0.0 | 0.00 | 0.45 | 0.43 | 84 | 1018.8 |
| 20260503042727 | 51 | 324 | 0.0 | 0.0 | 0.00 | 0.47 | 0.43 | 83 | 1018.6 |
| 20260503042228 | 51 | 324 | 0.0 | 0.0 | 0.00 | 0.49 | 0.43 | 82 | 1018.6 |
| 20260503041728 | 51 | 324 | 0.0 | 0.0 | 0.00 | 0.51 | 0.43 | 82 | 1018.7 |
| 20260503041228 | 51 | 324 | 0.0 | 0.0 | 0.00 | 0.54 | 0.43 | 82 | 1018.6 |
| 20260503040728 | 51 | 324 | 0.0 | 0.0 | 0.00 | 0.57 | 0.43 | 81 | 1018.7 |
| 20260503040226 | 52 | 324 | 0.0 | 0.0 | 0.00 | 0.59 | 0.43 | 81 | 1018.6 |
| 20260503035723 | 51 | 324 | 0.0 | 0.0 | 0.00 | 0.60 | 0.43 | 80 | 1018.5 |